User: anonymous   Login
Location: Albany
(35.0000°S, 118.0000°E)
Time: 04:42:32
(UTC-04:00)
Language:

JAS-1B - Orbit

View from above orbital plane
View from above orbital plane
View from above satellite
View from above satellite

Ground track
Ground track

The orbit data is extracted from the following two-line orbital elements,

1 20480U 90013C   16270.08248149 -.00000003  00000-0  73804-4 0  9999
2 20480  99.0218  87.1457 0539401 269.5214 212.6337 12.83412472247841
Epoch (UTC): 26 September 2016 01:58:46
Eccentricity: 0.0539401
inclination: 99.0218°
perigee height: 912 km
apogee height: 1743 km
right ascension of ascending node: 87.1457°
argument of perigee: 269.5214°
revolutions per day: 12.83412472
mean anomaly at epoch: 212.6337°
orbit number at epoch: 24784

The dashed part of the orbit path shows where the satellite is in the earth's shadow,  

DLR